Regional Weather Roundup
Issued by NWS

Home | Current Version | Previous Version | Graphics & Text | Print | Product List | Glossary On
Versions: 1 2 3 4 5 6 7 8 9 10 11 12 13 14 15 16 17 18 19 20 21 22 23 24 25 26 27 28 29 30 31 32 33 34 35 36 37 38 39 40 41 42 43 44 45 46 47 48 49 50
000
ASUS43 KDMX 221607
RWRIA

WEATHER ROUNDUP FOR IOWA
NATIONAL WEATHER SERVICE DES MOINES IA
1100 AM CDT FRI AUG 22 2014

NOTE: "FAIR" INDICATES FEW OR NO CLOUDS BELOW 12,000 FEET WITH NO
SIGNIFICANT WEATHER AND/OR OBSTRUCTIONS TO VISIBILITY.

* - THESE STATIONS ARE NOT NWS STATIONS...THUS NOT UNDER NWS
QUALITY CONTROL.  THEY ALSO DO NOT REPORT WEATHER SUCH
AS PRECIPITATION OR FOG.

IAZ001>003-012>014-020>022-031>034-043>046-221700-
   NORTHWEST IOWA

CITY           SKY/WX    TMP DP  RH WIND       PRES   REMARKS
CARROLL *      SUNNY     82  75  78 CALM      29.94R HX  89
CHEROKEE *     PTSUNNY   81  75  83 E7        29.96R HX  86
DENISON *      SUNNY     84  73  70 CALM      29.93R HX  91
LE MARS *      SUNNY     81  73  78 N7        29.96R HX  85
ORANGE CITY *  PTSUNNY   81  73  78 NE6       29.97R HX  85
SHELDON *      CLOUDY    79  73  83 NE8G15    29.97R HX  82
SIOUX CITY     SUNNY     85  74  69 NE5       29.94R HX  92
SPENCER        CLOUDY    77  71  82 NE9       29.97R
STORM LAKE *   PTSUNNY   79  79 100 NE6       29.97R HX  83
$$

IAZ055>058-069>071-079>083-090>094-221700-
   SOUTHWEST IOWA

CITY           SKY/WX    TMP DP  RH WIND       PRES   REMARKS
ATLANTIC *     MOSUNNY   81  75  83 CALM      29.94R HX  86
AUDUBON *      SUNNY     84  79  84 SE3       29.95S HX  96
CLARINDA *     SUNNY     81  75  83 S8        29.94S HX  86
COUNCIL BLFS * MOSUNNY   82  79  89 VRB5      29.92F HX  93
CRESTON *      SUNNY     82  75  78 SW7       29.95F HX  89
HARLAN  *      SUNNY     81  75  83 S6        29.98R HX  86
LAMONI         CLOUDY    82  74  76 SW14G21   29.94S HX  88
RED OAK *      MOSUNNY   82  75  78 SW7       29.94R HX  89
SHENANDOAH *   SUNNY     82  75  78 SW8       29.93S HX  89
$$

IAZ047>049-059>061-072>074-084-221700-
   CENTRAL IOWA

CITY           SKY/WX    TMP DP  RH WIND       PRES   REMARKS
AMES           MOSUNNY   81  74  79 SW5       29.93S HX  86
ANKENY *       SUNNY     82  73  74 S6        29.94R HX  88
CHARITON *     SUNNY     84  77  79 SW8       29.95R HX  94
DES MOINES     PTSUNNY   82  72  71 SE5       29.94R HX  87
GRINNELL*      MOSUNNY   81  72  74 SW5       29.95S HX  84
KNOXVILLE *    SUNNY     82  75  78 SW3       29.94R HX  89
MARSHALLTOWN   SUNNY     81  72  74 SW5       29.94R HX  85
PELLA *        MOSUNNY   86  75  70 SW6       29.95R HX  95
PERRY *          N/A     81  73  78 S5        29.94S HX  85
$$

IAZ004>006-015-016-023>025-035-036-221700-
   NORTH CENTRAL IOWA

CITY           SKY/WX    TMP DP  RH WIND       PRES   REMARKS
ALGONA *       MOSUNNY   79  73  83 NE7       29.96R HX  82
CLARION *      CLOUDY    81  77  89 MISG      29.95R HX  88
ESTHERVILLE    CLOUDY    73  71  93 NE10      29.98R FOG
FORT DODGE *   CLOUDY    79  73  83 CALM      29.96R HX  82
MASON CITY     MOSUNNY   81  72  74 NE6       29.97R HX  85
FOREST CITY *  MOSUNNY   81  73  78 NE8       29.96R HX  85
IOWA FALLS *   CLOUDY    81  75  83 E3        29.95S HAZE    HX  86
$$

IAZ007>011-017>019-026>030-037>042-050>054-066-221700-
   NORTHEAST IOWA

CITY           SKY/WX    TMP DP  RH WIND       PRES   REMARKS
CEDAR RAPIDS   PTSUNNY   79  73  82 W6        29.94R HX  82
CHARLES CITY * CLOUDY    75  75 100 VRB3      29.96R FOG
CLINTON *      CLOUDY    72  70  94 SW9       29.99R
DECORAH *      CLOUDY    77  75  94 CALM      29.95R
DUBUQUE        CLOUDY    75  74  96 S5        29.97R
MONTICELLO *   PTSUNNY   77  75  94 CALM      29.94S FOG
OELWEIN *      PTSUNNY   79  77  94 S8        29.96R FOG     HX  83
WATERLOO       MOSUNNY   82  75  79 S7        29.93R HX  89
$$

IAZ064-065-067-068-078-221700-
   EAST CENTRAL IOWA

CITY           SKY/WX    TMP DP  RH WIND       PRES   REMARKS
DAVENPORT      TSTM      72  70  93 W5        29.98R FOG
IOWA CITY      CLOUDY    80  73  79 W5        29.95R HX  84
MT. PLEASANT * CLOUDY    81  72  74 S9        29.96R HX  84
MUSCATINE *    SUNNY     79  75  89 S7        29.95F HX  82
QUAD CITIES    CLOUDY    73  72  96 S7        29.96R
$$

IAZ062-063-075>077-085>089-095>099-221700-
   SOUTHEAST IOWA

CITY           SKY/WX    TMP DP  RH WIND       PRES   REMARKS
BURLINGTON     CLOUDY    77  75  93 S12       29.98R
FAIRFIELD *    SUNNY     79  72  78 S9        29.97R HX  82
FORT MADISON * SUNNY     79  75  89 SE5       30.00R HX  82
KEOKUK *       MOSUNNY   79  75  89 SE5       29.98R HX  82
OSKALOOSA *      N/A     81  75  83 S3        29.95R HX  86
CENTERVILLE *  SUNNY     82  77  83 SW5       29.97R HX  91
OTTUMWA        MOSUNNY   80  71  74 S7        29.93R HX  84
WASHINGTON *   MOSUNNY   79  75  89 VRB5      29.96R HX  82
$$

ABBREVIATIONS USED IN REMARKS
   TC - TEMPERATURES IN CELSIUS
  WCI - WIND CHILL INDEX
   HX - HEAT INDEX
  VSB - VISIBILITY
$$




USA.gov is the U.S. government's official web portal to all federal, state and local government web resources and services.